OpenBCM V1.08-5-g2f4a (Linux)

Packet Radio Mailbox

IZ3LSV

[San Dona' di P. JN]

 Login: GUEST





  
I0OJJ  > KEPS     19.07.25 01:40l 343 Lines 16342 Bytes #29 (0) @ AMSAT
BID : ORB25200.1
Read: GUEST
Subj: 2Line Orbital Elements 25200.AMSAT
Path: IZ3LSV<IK6IHL<IK7NXU<HB9ON<HB9ON<PI8ZTM<IR0AAB<I0OJJ
Sent: 250719/0025z @:I0OJJ.ITA.EU [Rome] obcm1.08-10-g596e
From: I0OJJ @ I0OJJ.ITA.EU (Gustavo)
To:   KEPS @ AMSAT
X-Info: This message was generated automatically


QST de W1STR

AMSAT Orbital Elements for Amateur Satellites in TLE Format
From Orbital Analysis Office
New England Sci-Tech STEM Education Center
Natick, MA July 19, 2025
To all radio amateurs


These element sets describe the orbits of various satellites 
in use by the amateur radio community. For details see:
www.amsat.org/keplerian-elements-formats/

A daily update of element sets is available at:
www.amsat.org/tle/daily-bulletin.txt
or without bulletin text:
www.amsat.org/tle/dailytle.txt


AO-07
1 07530U 74089B   25199.52760256 -.00000042  00000-0  27528-4 0  9997
2 07530 101.9939 204.2069 0012558  49.1471 102.5312 12.53690161318706
UO-11
1 14781U 84021B   25199.49888103  .00000964  00000-0  10698-3 0  9999
2 14781  97.7567 165.1049 0007167 197.0515 163.0463 14.89474163207435
AO-27
1 22825U 93061C   25199.44877941  .00000052  00000-0  36856-4 0  9997
2 22825  98.7347 261.1943 0008408   7.2475 352.8828 14.30809584659277
FO-29
1 24278U 96046B   25199.41993905 -.00000028  00000-0  10063-4 0  9999
2 24278  98.5707  88.1957 0348993 241.8952 114.6505 13.53250596428023
NOAA-15
1 25338U 98030A   25199.86694116  .00000168  00000-0  86848-4 0  9991
2 25338  98.5338 224.0498 0009164 240.8641 119.1623 14.26998233414002
GO-32
1 25397U 98043D   25199.89048349  .00000053  00000-0  43065-4 0  9991
2 25397  98.9726 179.8348 0002384  92.7087 267.4364 14.24322793404107
ISS
1 25544U 98067A   25199.84886753  .00007062  00000-0  13184-3 0  9990
2 25544  51.6335 150.1303 0002228  93.4332 266.6912 15.49945849520070
NO-44
1 26931U 01043C   25198.99663402  .00000076  00000-0  59444-4 0  9996
2 26931  67.0510  28.5110 0006294 277.0646  82.9740 14.31749311242600
SO-50
1 27607U 02058C   25199.69971387  .00000808  00000-0  11782-3 0  9991
2 27607  64.5528  79.7727 0060553 325.5527  34.1659 14.81717543215233
CO-55
1 27844U 03031E   25199.46556529  .00000235  00000-0  12149-3 0  9990
2 27844  98.6760 207.2373 0010888  76.6559 283.5833 14.24020240144178
CO-57
1 27848U 03031J   25199.50248196  .00000200  00000-0  10736-3 0  9999
2 27848  98.6787 207.2501 0010804  91.8983 268.3433 14.23351706143902
RS-22
1 27939U 03042A   25199.89620289  .00000852  00000-0  14280-3 0  9992
2 27939  98.3312  10.3050 0010274 242.4680 255.2986 14.72425591166614
CO-58
1 28895U 05043F   25199.35685328  .00001231  00000-0  20825-3 0  9997
2 28895  98.2545 344.2036 0014570 179.2396 180.8834 14.71113446 52644
CO-65
1 32785U 08021C   25199.90976197  .00004086  00000-0  29411-3 0  9998
2 32785  97.7876 171.3772 0011923  82.1299 278.1279 15.04732482935061
CO-66
1 32791U 08021J   25199.50160334  .00010089  00000-0  47897-3 0  9997
2 32791  97.7294 180.4348 0005039  56.4245 303.7470 15.19443329936400
RS-30
1 32953U 08025A   25199.83667696  .00000034  00000-0  17312-3 0  9998
2 32953  82.5010 202.7646 0018441 323.4666  36.5154 12.43166346778412
NOAA-19
1 33591U 09005A   25199.84704326  .00000134  00000-0  95492-4 0  9996
2 33591  98.9955 264.7686 0012767 251.1658 108.8130 14.13390830847651
SRMSAT
1 37841U 11058D   25199.54399324  .00000372  00000-0  58256-4 0  9995
2 37841  19.9719 278.7644 0011812 132.7077 256.0467 14.11445090710624
ZACUBE-1
1 39417U 13066B   25199.82718034  .00004075  00000-0  35367-3 0  9992
2 39417  97.7813 156.6438 0041802 281.3271  78.3255 14.96952545630787
Delfi-N3xt
1 39428U 13066N   25199.81678994  .00003656  00000-0  37283-3 0  9996
2 39428  97.8321 117.0379 0082733 230.6553 128.7312 14.88772750625098
GOMX-1
1 39430U 13066Q   25199.82325126  .00001583  00000-0  25024-3 0  9993
2 39430  97.6803  56.0732 0133707  67.0720 294.4533 14.67767739621163
LO-74
1 39440U 13066AA  25199.82822968  .00003138  00000-0  31813-3 0  9991
2 39440  97.8496 144.1236 0063116  51.4942 309.1912 14.90154808628481
AO-73
1 39444U 13066AE  25199.43825587  .00005290  00000-0  39349-3 0  9995
2 39444  97.7846 161.5131 0040505 254.4267 105.2485 15.02760642629420
DTUSAT-2
1 40030U 14033W   25199.89221250  .00005444  00000-0  35168-3 0  9996
2 40030  98.0566 173.6283 0007446 290.8379  69.2050 15.08671712602831
EO-80
1 40032U 14033Y   25199.51247158  .00004785  00000-0  30904-3 0  9992
2 40032  98.0456 172.8307 0007224 218.6923 141.3788 15.08744998602248
LILACSAT-2
1 40908U 15049K   25199.80874566  .00009923  00000-0  25325-3 0  9993
2 40908  97.5052 221.1191 0009580  31.8557 328.3266 15.39664101544266
IO-86
1 40931U 15052B   25151.18580175  .00001241  00000-0  78118-4 0  9996
2 40931   6.0006  24.0987 0012733 338.8432  21.1169 14.78805930523047
Horyu-4
1 41340U 16012D   25199.42583878  .00016835  00000-0  42891-3 0  9993
2 41340  30.9955 230.4238 0006625 111.8613 248.2738 15.38256712518779
Lapan A3
1 41603U 16040E   25199.87328770  .00002824  00000-0  99285-4 0  9996
2 41603  97.1377 202.9447 0012578 124.0534 236.1903 15.30077402503797
CAS-2T
1 41847U 16066G   25199.22155740  .00000978  00000-0  14660-3 0  9999
2 41847  98.4188 273.3435 0346743  61.7257 301.8468 14.43592841456596
CAS-4B
1 42759U 17034B   25199.89065555  .00076517  00000-0  65416-3 0  9992
2 42759  43.0055  86.7392 0021485 210.8500 149.1105 15.68224528448760
CAS-4A
1 42761U 17034D   25199.88766851  .00077626  00000-0  61900-3 0  9997
2 42761  43.0093  83.4245 0022686 215.3893 144.5470 15.69860785448794
TechnoSat
1 42829U 17042E   25199.82173226  .00003422  00000-0  26550-3 0  9998
2 42829  97.3877   6.6472 0017134 144.3106 215.9268 15.01887078436616
AO-91
1 43017U 17073E   25199.62127205  .00007698  00000-0  38866-3 0  9998
2 43017  97.5212  69.4055 0172177  34.1835 327.0335 15.05293791415084
S-Net D
1 43186U 18014G   25199.47914706  .00004294  00000-0  25278-3 0  9996
2 43186  97.5583 101.9893 0010797  91.5548 268.6919 15.12115094408257
S-Net B
1 43187U 18014H   25199.28653373  .00004016  00000-0  23675-3 0  9997
2 43187  97.5589 101.7724 0011487  88.0730 272.1816 15.12092544408223
S-Net A
1 43188U 18014J   25199.81027438  .00004540  00000-0  26694-3 0  9990
2 43188  97.5598 102.4460 0011376  87.1298 273.1234 15.12124056408303
S-Net C
1 43189U 18014K   25199.48756617  .00004069  00000-0  23977-3 0  9999
2 43189  97.5611 102.1474 0012893  81.6991 278.5701 15.12089999406803
Ten-Koh
1 43677U 18084G   25199.46976984  .00001746  00000-0  14287-3 0  9990
2 43677  98.0849  13.2644 0008845 128.2726 231.9293 15.00712970366073
PO-101
1 43678U 18084H   25199.85463194  .00002037  00000-0  17567-3 0  9996
2 43678  98.1071  17.4836 0009079 143.5308 216.6533 14.98479096366260
QO-100
1 43700U 18090A   25199.75774404  .00000150  00000-0  00000+0 0  9991
2 43700   0.0130  75.1664 0002571  84.5661  75.6370  1.00272591 24577
MinXSS-2
1 43758U 18099A   25199.14374391  .00013149  00000-0  50236-3 0  9999
2 43758  97.4995 265.3258 0011642  28.4491 331.7380 15.26691157362857
AO-95
1 43770U 18099N   25199.61871878  .00006935  00000-0  34578-3 0  9993
2 43770  97.4894 257.2816 0012055  80.2807 279.9787 15.17792558362474
RANGE-A
1 43773U 18099R   25199.38653092  .00003092  00000-0  19713-3 0  9991
2 43773  97.4462 246.6646 0012766  64.0341 296.2202 15.09372847362079
MOVE-II
1 43780U 18099Y   25194.80194206  .15913345  26116-5  37118-3 0  9995
2 43780  97.4526 273.8800 0018736 270.1080  89.8075 16.44566529363241
SNUSat 2
1 43782U 18099AA  25199.11670974  .00005277  00000-0  28513-3 0  9995
2 43782  97.4572 253.2202 0012310  28.4432 331.7469 15.15059538362338
SnugLite
1 43784U 18099AC  25199.57437924  .00007342  00000-0  36290-3 0  9999
2 43784  97.4386 253.3108 0004037  44.5020 315.6538 15.18129228362557
ITASat 1
1 43786U 18099AE  25199.56259707  .00005432  00000-0  30767-3 0  9992
2 43786  97.4542 253.0509 0015680  74.7134 285.5829 15.13321335362356
EAGLET 1
1 43790U 18099AJ  25199.60272572  .00002878  00000-0  18403-3 0  9991
2 43790  97.4742 252.9161 0013399  60.7415 299.5152 15.09316414361953
ESEO
1 43792U 18099AL  25199.09052816  .00001307  00000-0  10204-3 0  9990
2 43792  97.4424 245.1608 0013166  34.2616 325.9456 15.02712369361608
CSIM
1 43793U 18099AM  25199.77372710  .00554883  00000-0  19633-2 0  9990
2 43793  97.4747 281.0012 0001381 250.2535 109.8587 15.87719900363833
JO-97
1 43803U 18099AX  25199.13152176  .00008996  00000-0  40215-3 0  9994
2 43803  97.4638 257.8764 0007471  23.6808 336.4770 15.21527336362637
Suomi 100
1 43804U 18099AY  25199.60459676  .00006498  00000-0  31335-3 0  9990
2 43804  97.4705 257.5282 0012302  20.3554 339.8169 15.18978204362624
ISAT
1 43879U 18111D   25199.72269156  .00016151  00000-0  53878-3 0  9995
2 43879  97.5920 115.0090 0010464  67.7316 292.5033 15.31101266357663
UWE-4
1 43880U 18111E   25199.48161304  .00011593  00000-0  44169-3 0  9994
2 43880  97.5866 112.9613 0013742  77.3602 282.9172 15.26791762359566
Sparrow
1 43881U 18111F   25199.28036654  .00017060  00000-0  54673-3 0  9998
2 43881  97.6071 117.5873 0009063 100.8907 259.3354 15.32395817359711
Prox-1
1 44339U 19036A   25199.17684845  .00008515  00000-0  10520-2 0  9990
2 44339  23.9953 168.1383 0007801 151.8828 208.2091 14.80553036323831
SONATE
1 44400U 19038Q   25185.47540524  .09032085  27445-5  31847-3 0  9995
2 44400  97.6609 216.4776 0012462 246.7970 113.2018 16.43248376333575
Taurus 1
1 44530U 19059C   25199.83456321  .00004785  00000-0  87844-3 0  9996
2 44530  98.6104 341.1086 0008043 270.5764  89.4516 14.66195247309690
Duchifat 3
1 44854U 19089C   25199.83925174  .00042935  00000-0  75600-3 0  9991
2 44854  36.9416 105.0252 0007200 280.1743  79.8202 15.49444191309030
TO-108
1 44881U 19093C   25199.82656494  .00000690  00000-0  85572-4 0  9993
2 44881  97.7913 274.6548 0015257 101.9185 258.3742 14.85663910301901
